DW8780 Weather Reports


Display with metric or nautical units.
time (UTC)temp
F
wind
direction
speed
MPH
gust
MPH
rain 1hr
in
rain 24hr
in
rain mn
in
humidity
%
barometer
mb
20260510185003 81 340 2.0 8.0 0.00 0.00 0.00 43 1013.5
20260510184504 81 342 2.0 8.0 0.00 0.00 0.00 44 1013.5
20260510184004 82 336 2.0 8.0 0.00 0.00 0.00 43 1013.4
20260510183503 82 359 2.0 8.0 0.00 0.00 0.00 42 1013.5
20260510183003 83 6 4.0 17.0 0.00 0.00 0.00 42 1013.5
20260510182504 83 2 5.0 17.0 0.00 0.00 0.00 41 1013.4
20260510182003 83 359 2.0 12.0 0.00 0.00 0.00 45 1013.5
20260510181003 83 355 3.0 10.0 0.00 0.00 0.00 44 1013.6
20260510180004 83 6 2.0 8.0 0.00 0.00 0.00 43 1013.8
20260510175004 82 343 3.0 8.0 0.00 0.00 0.00 46 1013.9
20260510174503 82 342 3.0 7.0 0.00 0.00 0.00 44 1013.9
20260510174004 82 349 2.0 6.0 0.00 0.00 0.00 43 1013.9
20260510173005 82 344 2.0 6.0 0.00 0.00 0.00 41 1013.9
20260510172004 82 351 2.0 9.0 0.00 0.00 0.00 42 1013.9
20260510171504 82 344 1.0 5.0 0.00 0.00 0.00 45 1013.9
20260510171005 82 344 2.0 5.0 0.00 0.00 0.00 42 1013.9
20260510170004 83 12 4.0 11.0 0.00 0.00 0.00 43 1014.0
20260510165503 83 18 5.0 13.0 0.00 0.00 0.00 44 1014.0
20260510165003 82 16 4.0 13.0 0.00 0.00 0.00 44 1014.0
20260510164504 81 354 2.0 6.0 0.00 0.00 0.00 44 1014.2
20260510164005 82 346 2.0 7.0 0.00 0.00 0.00 45 1014.2
20260510163504 82 353 3.0 8.0 0.00 0.00 0.00 43 1014.3
20260510163004 83 351 2.0 8.0 0.00 0.00 0.00 47 1014.2
20260510162504 83 358 2.0 6.0 0.00 0.00 0.00 47 1014.2
20260510162004 83 5 3.0 7.0 0.00 0.00 0.00 45 1014.3
20260510161504 83 7 3.0 7.0 0.00 0.00 0.00 45 1014.0
20260510161003 82 26 3.0 7.0 0.00 0.00 0.00 46 1014.2
20260510160504 82 37 2.0 7.0 0.00 0.00 0.00 44 1014.2
20260510160003 82 359 2.0 8.0 0.00 0.00 0.00 44 1014.2
20260510155504 82 8 4.0 8.0 0.00 0.00 0.00 46 1014.3
20260510155004 82 26 3.0 7.0 0.00 0.00 0.00 49 1014.3
20260510154504 82 27 2.0 7.0 0.00 0.00 0.00 48 1014.3
20260510154004 81 18 2.0 7.0 0.00 0.00 0.00 48 1014.4
20260510153504 81 19 2.0 6.0 0.00 0.00 0.00 49 1014.5
20260510153004 81 30 2.0 7.0 0.00 0.00 0.00 47 1014.4
20260510152004 80 340 1.0 3.0 0.00 0.00 0.00 46 1014.4
20260510151504 81 354 2.0 5.0 0.00 0.00 0.00 48 1014.4
20260510151003 81 31 2.0 7.0 0.00 0.00 0.00 47 1014.4
20260510150503 81 54 2.0 7.0 0.00 0.00 0.00 51 1014.3
20260510150004 81 37 1.0 5.0 0.00 0.00 0.00 53 1014.3
20260510145504 80 24 1.0 5.0 0.00 0.00 0.00 51 1014.5
20260510145003 79 8 1.0 6.0 0.00 0.00 0.00 49 1014.5
20260510144505 79 20 2.0 6.0 0.00 0.00 0.00 50 1014.5
20260510143505 77 18 1.0 5.0 0.00 0.00 0.00 51 1014.6
20260510143005 77 6 1.0 5.0 0.00 0.00 0.00 53 1014.5
20260510142503 76 357 1.0 5.0 0.00 0.00 0.00 54 1014.5
20260510142004 76 2 1.0 3.0 0.00 0.00 0.00 55 1014.4
20260510141503 75 348 1.0 4.0 0.00 0.00 0.00 56 1014.4
20260510141004 74 333 1.0 4.0 0.00 0.00 0.00 60 1014.4
20260510140504 74 326 1.0 3.0 0.00 0.00 0.00 57 1014.4
20260510140004 74 332 1.0 3.0 0.00 0.00 0.00 58 1014.4
20260510135504 74 332 1.0 3.0 0.00 0.00 0.00 60 1014.4
20260510135004 74 323 1.0 3.0 0.00 0.00 0.00 60 1014.5
20260510134503 73 333 1.0 4.0 0.00 0.00 0.00 63 1014.6
20260510134004 73 345 2.0 6.0 0.00 0.00 0.00 63 1014.6
20260510133504 73 352 2.0 6.0 0.00 0.00 0.00 62 1014.6
20260510133003 72 356 2.0 6.0 0.00 0.00 0.00 65 1014.5
20260510132504 72 348 2.0 5.0 0.00 0.00 0.00 68 1014.5
20260510132003 71 352 2.0 7.0 0.00 0.00 0.00 66 1014.6
20260510131503 71 352 2.0 7.0 0.00 0.00 0.00 66 1014.7
20260510131003 70 343 1.0 3.0 0.00 0.00 0.00 69 1014.6
20260510130504 70 349 1.0 4.0 0.00 0.00 0.00 72 1014.6
20260510125504 69 330 1.0 3.0 0.00 0.00 0.00 73 1014.5
20260510124503 68 349 1.0 5.0 0.00 0.00 0.00 76 1014.4
20260510123003 67 331 1.0 3.0 0.00 0.00 0.00 77 1014.1
20260510122504 66 348 1.0 3.0 0.00 0.00 0.00 78 1013.9
20260510122004 66 349 1.0 3.0 0.00 0.00 0.00 79 1013.8
20260510121503 65 336 1.0 3.0 0.00 0.00 0.00 79 1013.8
20260510121004 64 338 1.0 2.0 0.00 0.00 0.00 82 1013.7
20260510120504 64 354 1.0 2.0 0.00 0.00 0.00 83 1013.7
20260510120005 63 6 1.0 2.0 0.00 0.00 0.00 84 1013.6
20260510115504 62 11 1.0 2.0 0.00 0.00 0.00 85 1013.5
20260510115004 61 350 0.0 2.0 0.00 0.00 0.00 88 1013.6
20260510114504 61 331 1.0 2.0 0.00 0.00 0.00 89 1013.6
20260510114003 60 326 1.0 2.0 0.00 0.00 0.00 91 1013.5
20260510113504 60 347 1.0 2.0 0.00 0.00 0.00 92 1013.5
20260510113005 59 114 1.0 2.0 0.00 0.00 0.00 92 1013.3
20260510112504 58 110 1.0 2.0 0.00 0.00 0.00 93 1013.1
20260510112003 58 2 0.0 2.0 0.00 0.00 0.00 93 1013.2
20260510111504 58 351 0.0 2.0 0.00 0.00 0.00 94 1013.0
20260510111004 58 359 0.0 2.0 0.00 0.00 0.00 94 1013.0
20260510110503 57 19 0.0 2.0 0.00 0.00 0.00 94 1013.0
20260510110004 57 54 1.0 2.0 0.00 0.00 0.00 94 1012.9
20260510105503 57 27 1.0 2.0 0.00 0.00 0.00 94 1012.9
20260510105004 57 14 1.0 2.0 0.00 0.00 0.00 93 1012.8
20260510104503 56 36 0.0 2.0 0.00 0.00 0.00 93 1012.7
20260510104003 56 4 0.0 2.0 0.00 0.00 0.00 92 1012.5
20260510103504 56 334 0.0 2.0 0.00 0.00 0.00 92 1012.4
20260510103003 56 333 0.0 2.0 0.00 0.00 0.00 92 1012.3
20260510102503 56 317 0.0 2.0 0.00 0.00 0.00 91 1012.2
20260510102004 56 308 0.0 2.0 0.00 0.00 0.00 91 1012.1
20260510101003 57 353 0.0 2.0 0.00 0.00 0.00 90 1012.1
20260510100504 57 350 0.0 2.0 0.00 0.00 0.00 89 1012.0
20260510100004 57 353 0.0 2.0 0.00 0.00 0.00 89 1012.0
20260510095504 57 2 1.0 2.0 0.00 0.00 0.00 89 1011.9
20260510095003 58 93 1.0 2.0 0.00 0.00 0.00 89 1011.9
20260510094504 58 123 1.0 2.0 0.00 0.00 0.00 88 1011.9
20260510094004 58 109 0.0 2.0 0.00 0.00 0.00 88 1011.8
20260510093504 59 113 0.0 2.0 0.00 0.00 0.00 87 1011.8
20260510093004 59 81 1.0 3.0 0.00 0.00 0.00 88 1011.7
20260510092504 59 36 1.0 3.0 0.00 0.00 0.00 87 1011.6
20260510092004 60 30 1.0 3.0 0.00 0.00 0.00 87 1011.6
20260510090503 60 49 1.0 3.0 0.00 0.00 0.00 87 1011.4
20260510090004 60 92 1.0 3.0 0.00 0.00 0.00 87 1011.3
20260510084504 60 5 1.0 3.0 0.00 0.00 0.00 88 1011.2
20260510084003 60 357 1.0 4.0 0.00 0.00 0.00 88 1011.1
20260510083504 60 334 1.0 4.0 0.00 0.00 0.00 88 1011.0
20260510083003 60 333 1.0 5.0 0.00 0.00 0.00 89 1011.0
20260510082504 60 326 1.0 5.0 0.00 0.00 0.00 89 1011.1
20260510082004 60 328 1.0 4.0 0.00 0.00 0.00 90 1011.0
20260510081504 60 330 1.0 4.0 0.00 0.00 0.00 90 1010.9
20260510080504 59 325 1.0 5.0 0.00 0.00 0.00 92 1010.8
20260510080003 59 324 1.0 6.0 0.00 0.00 0.00 92 1011.0
20260510075004 58 321 1.0 3.0 0.00 0.00 0.00 93 1011.0
20260510074003 57 328 1.0 2.0 0.00 0.00 0.00 94 1011.1
20260510073504 57 313 1.0 2.0 0.00 0.00 0.00 94 1011.1
20260510073004 57 327 1.0 2.0 0.00 0.00 0.00 94 1011.1
20260510072504 57 348 0.0 2.0 0.00 0.00 0.00 94 1011.0
20260510072003 56 340 0.0 2.0 0.00 0.00 0.00 94 1011.1
20260510071504 56 340 0.0 2.0 0.00 0.00 0.00 94 1011.1
20260510071003 56 353 0.0 2.0 0.00 0.00 0.00 93 1011.2
20260510070504 56 9 0.0 2.0 0.00 0.00 0.00 93 1011.2
20260510070004 56 50 0.0 2.0 0.00 0.00 0.00 93 1011.1
20260510065004 56 107 0.0 2.0 0.00 0.00 0.00 92 1011.2
20260510064504 56 122 0.0 2.0 0.00 0.00 0.00 92 1011.2
20260510064004 56 140 0.0 2.0 0.00 0.00 0.00 92 1011.3
20260510063504 56 19 0.0 2.0 0.00 0.00 0.00 92 1011.1
20260510063003 56 11 0.0 2.0 0.00 0.00 0.00 92 1011.2
20260510062003 56 13 1.0 2.0 0.00 0.00 0.00 92 1011.2
20260510061504 56 17 0.0 2.0 0.00 0.00 0.00 92 1011.2
20260510061003 56 48 1.0 2.0 0.00 0.00 0.00 92 1011.1
20260510060504 56 57 1.0 2.0 0.00 0.00 0.00 92 1011.2
20260510060003 56 64 0.0 2.0 0.00 0.00 0.00 92 1011.3
20260510055504 56 54 0.0 2.0 0.00 0.00 0.00 92 1011.2
20260510054504 56 39 1.0 2.0 0.00 0.00 0.00 92 1011.3
20260510054003 56 22 0.0 2.0 0.00 0.00 0.00 91 1011.4
20260510053504 56 45 0.0 2.0 0.00 0.00 0.00 91 1011.5
20260510053003 56 52 0.0 2.0 0.00 0.00 0.00 91 1011.5
20260510052004 56 36 0.0 2.0 0.00 0.00 0.00 91 1011.4
20260510051503 56 10 0.0 2.0 0.00 0.00 0.00 91 1011.4
20260510051004 56 337 0.0 2.0 0.00 0.00 0.00 90 1011.3
20260510050503 56 359 0.0 2.0 0.00 0.00 0.00 90 1011.4
20260510050004 56 85 0.0 2.0 0.00 0.00 0.00 90 1011.3
20260510045504 56 88 0.0 2.0 0.00 0.00 0.00 90 1011.4
20260510044503 56 89 0.0 2.0 0.00 0.00 0.00 90 1011.4
20260510044003 56 65 0.0 2.0 0.00 0.00 0.00 90 1011.4
20260510043504 56 49 0.0 2.0 0.00 0.00 0.00 89 1011.3
20260510042503 57 69 0.0 2.0 0.00 0.00 0.00 89 1011.3
20260510042004 57 92 0.0 2.0 0.00 0.00 0.00 88 1011.3
20260510041504 57 123 0.0 2.0 0.00 0.00 0.00 88 1011.3
20260510041004 57 96 0.0 2.0 0.00 0.00 0.00 88 1011.3
20260510040004 57 37 0.0 2.0 0.00 0.00 0.00 87 1011.4
20260510035504 57 1 0.0 2.0 0.00 0.00 0.00 87 1011.3
20260510035004 57 56 0.0 1.0 0.00 0.00 0.00 86 1011.2
20260510034504 58 141 0.0 1.0 0.00 0.00 0.00 86 1011.2
20260510034004 58 78 0.0 2.0 0.00 0.00 0.00 86 1011.1
20260510033504 58 68 0.0 2.0 0.00 0.00 0.00 86 1011.1
20260510033003 58 52 0.0 2.0 0.00 0.00 0.00 85 1011.0
20260510032504 58 9 0.0 2.0 0.00 0.00 0.00 85 1011.0
20260510030504 59 32 0.0 2.0 0.00 0.00 0.00 83 1011.0
20260510030003 59 36 0.0 2.0 0.00 0.00 0.00 82 1011.0
20260510025505 59 52 0.0 2.0 0.00 0.00 0.00 82 1010.9
20260510025004 59 6 0.0 2.0 0.00 0.00 0.00 82 1010.9
20260510024503 59 338 0.0 2.0 0.00 0.00 0.00 82 1010.9
20260510024005 60 352 0.0 2.0 0.00 0.00 0.00 81 1010.8
20260510023504 60 73 0.0 2.0 0.00 0.00 0.00 81 1010.9
20260510023003 60 77 0.0 2.0 0.00 0.00 0.00 80 1010.9
20260510022503 60 85 0.0 2.0 0.00 0.00 0.00 80 1010.9
20260510022004 60 19 0.0 1.0 0.00 0.00 0.00 79 1010.9
20260510021503 60 27 0.0 2.0 0.00 0.00 0.00 79 1010.9
20260510020504 61 135 0.0 2.0 0.00 0.00 0.00 78 1010.9
20260510015004 62 91 0.0 2.0 0.00 0.00 0.00 76 1010.8
20260510014503 62 95 0.0 2.0 0.00 0.00 0.00 76 1010.8
20260510013504 62 2 0.0 2.0 0.00 0.00 0.00 75 1010.6
20260510013003 63 1 0.0 2.0 0.00 0.00 0.00 74 1010.6
20260510012503 63 4 0.0 2.0 0.00 0.00 0.00 73 1010.6
20260510012003 63 7 0.0 2.0 0.00 0.00 0.00 73 1010.6
20260510011504 64 351 0.0 2.0 0.00 0.00 0.00 72 1010.6
20260510011003 64 354 0.0 2.0 0.00 0.00 0.00 71 1010.4
20260510010504 64 100 0.0 2.0 0.00 0.00 0.00 71 1010.4
20260510010003 65 127 0.0 2.0 0.00 0.00 0.00 70 1010.5
20260510005504 65 101 0.0 2.0 0.00 0.00 0.00 70 1010.5
20260510005003 65 350 0.0 2.0 0.00 0.00 0.00 69 1010.5
20260510004504 66 346 0.0 2.0 0.00 0.00 0.00 68 1010.3
20260510004003 66 1 0.0 2.0 0.00 0.00 0.00 68 1010.3
20260510002504 67 13 0.0 2.0 0.00 0.00 0.00 65 1010.2
20260510002003 68 6 0.0 2.0 0.00 0.00 0.00 64 1010.2
20260510001504 68 316 0.0 2.0 0.00 0.00 0.00 63 1010.1
20260510001004 68 313 0.0 2.0 0.00 0.00 0.00 62 1010.0
20260510000503 69 47 0.0 2.0 0.00 0.00 0.00 62 1010.0
20260510000004 69 21 0.0 2.0 0.00 0.00 0.00 62 1010.1
20260509235504 70 358 0.0 2.0 0.00 0.00 0.00 60 1009.9
20260509235003 70 347 0.0 2.0 0.00 0.00 0.00 60 1009.8
20260509234504 70 345 0.0 2.0 0.00 0.00 0.00 58 1009.8
20260509234004 71 344 0.0 2.0 0.00 0.00 0.00 57 1009.7
20260509233504 71 350 0.0 2.0 0.00 0.00 0.00 57 1009.8
20260509233003 71 346 1.0 7.0 0.00 0.00 0.00 56 1009.7
20260509232504 71 333 1.0 7.0 0.00 0.00 0.00 56 1009.6
20260509231504 72 329 1.0 4.0 0.00 0.00 0.00 55 1009.5
20260509230503 72 335 2.0 6.0 0.00 0.00 0.00 53 1009.6
20260509230004 73 330 1.0 5.0 0.00 0.00 0.00 53 1009.5
20260509224504 73 327 2.0 5.0 0.00 0.00 0.00 55 1009.5
20260509224004 73 348 2.0 6.0 0.00 0.00 0.00 55 1009.4
20260509223004 73 341 2.0 5.0 0.00 0.00 0.00 55 1009.5
20260509222503 74 341 2.0 5.0 0.00 0.00 0.00 54 1009.4
20260509221504 74 330 2.0 5.0 0.00 0.00 0.00 54 1009.5
20260509221004 74 332 2.0 10.0 0.00 0.00 0.00 53 1009.5
20260509220504 74 342 2.0 10.0 0.00 0.00 0.00 52 1009.5
20260509220004 74 346 2.0 9.0 0.00 0.00 0.00 53 1009.5
20260509215504 74 352 2.0 6.0 0.00 0.00 0.00 55 1009.5
20260509215005 73 353 2.0 6.0 0.00 0.00 0.00 53 1009.4
20260509213504 74 348 2.0 5.0 0.00 0.00 0.00 54 1009.4
20260509212504 74 340 2.0 8.0 0.00 0.00 0.00 54 1009.4
20260509212003 73 345 3.0 7.0 0.00 0.00 0.00 53 1009.3
20260509211504 73 347 2.0 7.0 0.00 0.00 0.00 54 1009.4
20260509211003 72 347 1.0 7.0 0.00 0.00 0.00 55 1009.4
20260509210004 72 332 2.0 4.0 0.00 0.00 0.00 52 1009.4
20260509205503 72 335 2.0 5.0 0.00 0.00 0.00 52 1009.6
20260509205004 72 334 2.0 5.0 0.00 0.00 0.00 51 1009.6
20260509204504 72 341 2.0 9.0 0.00 0.00 0.00 52 1009.5
20260509204003 72 346 2.0 11.0 0.00 0.00 0.00 53 1009.6
20260509203003 72 340 2.0 4.0 0.00 0.00 0.00 50 1009.6
20260509202504 72 350 2.0 7.0 0.00 0.00 0.00 51 1009.6
20260509202004 72 357 3.0 9.0 0.00 0.00 0.00 51 1009.6
20260509201503 73 357 4.0 9.0 0.00 0.00 0.00 51 1009.6
20260509201004 73 355 3.0 9.0 0.00 0.00 0.00 52 1009.7
20260509200503 73 357 3.0 9.0 0.00 0.00 0.00 51 1009.8
20260509200004 73 338 3.0 12.0 0.00 0.00 0.00 48 1009.9
20260509195503 73 333 4.0 12.0 0.00 0.00 0.00 47 1010.1
20260509194504 73 350 4.0 13.0 0.00 0.00 0.00 50 1010.4
20260509194003 73 351 4.0 13.0 0.00 0.00 0.00 53 1010.5
20260509193504 74 344 4.0 10.0 0.00 0.00 0.00 53 1010.6
20260509193004 74 342 4.0 14.0 0.00 0.00 0.00 51 1010.6
20260509192503 74 342 3.0 14.0 0.00 0.00 0.00 51 1010.6
20260509191504 74 346 3.0 10.0 0.00 0.00 0.00 53 1010.7
20260509191003 73 352 3.0 10.0 0.00 0.00 0.00 54 1010.7
20260509190504 73 350 3.0 10.0 0.00 0.00 0.00 51 1010.8
20260509190003 74 348 4.0 13.0 0.00 0.00 0.00 51 1010.8
20260509185504 74 351 4.0 13.0 0.00 0.00 0.00 51 1010.7